Showing default

IRIDIUM 136, 42962

Orbit data source: Space-Track

IRIDIUM 136, 42962 is a payload satellite owned by Iridium (US) in LEO that was launched on Mon, 09 Oct 2017 UTC via an FALCON 9 launch vehicle from the Air Force Western Test Range (AFWTR). Payload-class satellites include a variety of spacecraft equipped with specific instruments for various scientific and technological missions. These include communications satellites like Starlink; space stations such as the ISS; scientific satellites like the Hubble; Earth observation satellites from companies like Planet Labs, Umbra, and HawkEye 360; GPS; miniature CubeSats for education and research; and military/defense satellites.

Loading next visibility...
Identifier
42962, 2017-061H
Orbit
LEO
Country
Flag of USUS
Related business
Manufacturer
OATK SSG Gilbert
Mission
Operational Commercial Communications
Bus & Motor
ELITEBUS, Unknown motor
Mass
860 kg wet, 700 kg dry
Launch date (UTC)
2017-10-09 (8 years ago)
Launch vehicle
FALCON 9
Launch site
Air Force Western Test Range (AFWTR)
Object type
Payload
Rocket body
Debris
Shape & HBR
Trap Box + 2 Pan, 4.8 m
Radar Cross Section
10.154 m², Large (>1 m²)

Expand to show TLE details & history
Last TLE update: 1 day ago

TLE from 1 day ago
0 IRIDIUM 136
1 42962U 17061H   25306.50586366  .00000053  00000-0  11904-4 0  9990
2 42962  86.3938 120.0431 0002121  85.0844 275.0594 14.34217747422345
Epoch: 2025-11-02T12:08Z
TLE epoch observation values (Epoch: 2025-11-02T12:08:26.620Z)
Latitude
-0°
Longitude
-104.08844°
Altitude
780.585 km
Speed
7.464 km/s
True Right ascension
08h 00m 10s
True Declination
0° 00' 00"
Sunlit
Object was in daylight at epoch
Visualization orbit readout
Latitude
Unknown
Longitude
Unknown
Altitude
Unknown
Speed
Unknown
Apparent Right ascension
Unknown
Apparent Declination
Unknown
Sunlit
N/A
Visualization observer readout
Local Sidereal Time
14:21:40
Azimuth
Unknown
Elevation
Unknown
Doppler factor
Unknown
Orbital elements
Apogee altitude
776.149 km
Perigee altitude
773.115 km
Semi-major axis
7,152.769 km
Eccentricity
0.00021
Inclination
86.3938°
RAAN
120.0431°
Arg. of periapsis
85.0844°
True anomaly
275.03519°
Mean anomaly
275.0594°
Eccentric anomaly
275.04729°
Mean motion
3.58783 °/min
Orbital period
100.34 mins
BSTAR
0.000011904
Loading maneuver chart data...
Computing Atmospheric mass density...
Loading historical data...
Loading historical data...
Loading historical data...
Loading historical data...
Loading historical data...
Loading historical data...
Loading historical data...

Documentation

Showing up to 5 results
|